Orbital elements:
    P/2020 X1 (ATLAS)                                                           
Epoch 2020 Aug. 19.0 TT = JDT 2459080.5                                         
T 2020 Aug. 1.31597 TT                                  Veres                   
q   2.8894078            (2000.0)            P               Q                  
n   0.10289608     Peri.  326.17293     +0.85733620     -0.27659196             
a   4.5102799      Node    56.06637     +0.50525866     +0.61343436             
e   0.3593728      Incl.   31.55055     -0.09842926     +0.73972641             
P   9.58                                                                        
>From 63 observations 2020 Dec. 1-8, mean residual 0".5.                         
                                                                                
    P/2020 X1 (ATLAS)                                                           
Epoch 2030 Feb. 28.0 TT = JDT 2462560.5                                         
T 2030 Mar. 16.34829 TT                                 Veres                   
q   2.9094264            (2000.0)            P               Q                  
n   0.10212170     Peri.  326.30882     +0.85719849     -0.27821831             
a   4.5330518      Node    56.02087     +0.50583258     +0.61282002             
e   0.3581749      Incl.   31.50711     -0.09666513     +0.73962571             
P   9.65                                                                        
>From 63 observations 2020 Dec. 1-8, mean residual 0".5.                         
                                                                                
    P/2020 X1 (ATLAS)                                                           
Epoch 2020 Dec. 17.0 TT = JDT 2459200.5                                         
T 2020 Aug. 1.36997 TT                                  Veres                   
q   2.8894477            (2000.0)            P               Q                  
n   0.10287144     Peri.  326.18444     +0.85728068     -0.27678388             
a   4.5110000      Node    56.06712     +0.50538435     +0.61334123             
e   0.3594663      Incl.   31.54921     -0.09826748     +0.73973185             
P   9.58                                                                        
>From 63 observations 2020 Dec. 1-8, mean residual 0".5.                         
                                                                                
Ephemeris:
Date    TT    R. A. (2000) Decl.     Delta      r    Elong.  Phase   m1    m2
2020 11 09    03 07 09.7 +08 43 05   1.9681  2.9514   171.5     2.8  19.2
...
2020 11 24    02 51 59.8 +10 27 04   2.0201  2.9709   161.0     6.2  19.3
...
2020 12 02    02 44 58.4 +11 26 23   2.0753  2.9823   152.1     8.9  19.3
...
2020 12 08    02 40 30.0 +12 12 12   2.1282  2.9913   145.3    10.8  19.4
2020 12 09    02 39 49.8 +12 19 56   2.1379  2.9928   144.2    11.1  19.4
2020 12 10    02 39 10.9 +12 27 42   2.1478  2.9944   143.1    11.4  19.4
...
2020 12 16    02 35 47.8 +13 14 46   2.2123  3.0039   136.5    13.0  19.5
...
2020 12 24    02 32 40.7 +14 18 50   2.3101  3.0171   128.0    14.9  19.6
...
2021 01 08    02 31 10.5 +16 22 07   2.5211  3.0436   113.0    17.3  19.8

M. P. C. Staff               (C) Copyright 2020 MPC           M.P.E.C. 2020-X71




More information about the Iaude mailing list